WZZ4237 LWSK-LFOB

Flight info

Callsign WZZ4237
Flight time N/A
Altitude 34000
Route D341D DCT LONTA DCT DOLEV DCT REMSO DCT RASTU DCT DARZA DCT EKSUM DCT KUBUD DCT GOGEM DCT XEBIX DCT REPDA DCT GIMER DCT INKUD DCT EGOZE DCT FOB30
Aircraft A321/M-SDE3FGHIRWY/LB1

Departure

Time N/A
Airport Skopje International Airport (LWSK)

Arrival

Time 2026-04-24 19:56
Airport Beauvais-Tillé airport (LFOB)
Time Latitude Longitude Altitude Speed Heading
2026-04-24 17:09 41.96032 21.62602 793 ft 0 kts 75°
2026-04-24 18:54 47.81841 9.30632 34160 ft 444 kts 297°
2026-04-24 18:55 47.86116 9.18370 34171 ft 444 kts 296°
2026-04-24 18:56 47.88946 9.10214 34171 ft 443 kts 296°
2026-04-24 18:56 47.91806 9.01905 34178 ft 443 kts 296°
2026-04-24 18:57 47.94557 8.93913 34179 ft 442 kts 296°
2026-04-24 18:57 47.98061 8.86175 34160 ft 445 kts 319°
2026-04-24 18:58 48.02999 8.80818 34146 ft 448 kts 323°
2026-04-24 18:58 48.08141 8.75490 34150 ft 450 kts 324°
2026-04-24 18:59 48.13298 8.70154 34165 ft 451 kts 323°
2026-04-24 18:59 48.18456 8.64829 34168 ft 451 kts 323°
2026-04-24 18:59 48.20841 8.61823 34177 ft 447 kts 310°
2026-04-24 19:00 48.22618 8.58028 34185 ft 441 kts 294°
2026-04-24 19:00 48.23650 8.53736 34188 ft 437 kts 281°
2026-04-24 19:00 48.24303 8.49223 34186 ft 437 kts 281°
2026-04-24 19:01 48.25555 8.40371 34183 ft 437 kts 281°
2026-04-24 19:01 48.26819 8.31427 34169 ft 437 kts 281°
2026-04-24 19:02 48.27881 8.23938 34170 ft 437 kts 281°
2026-04-24 19:02 48.29340 8.13570 34163 ft 437 kts 280°
2026-04-24 19:03 48.30590 8.04649 34164 ft 437 kts 280°
2026-04-24 19:03 48.31837 7.95696 34157 ft 437 kts 280°
2026-04-24 19:04 48.33067 7.86790 34157 ft 437 kts 280°
2026-04-24 19:04 48.34306 7.77793 34160 ft 437 kts 279°
2026-04-24 19:05 48.36268 7.69065 34161 ft 440 kts 291°
2026-04-24 19:05 48.38709 7.60699 34154 ft 440 kts 291°
2026-04-24 19:06 48.41232 7.52018 34149 ft 440 kts 291°
2026-04-24 19:06 48.43622 7.43732 34161 ft 440 kts 291°
2026-04-24 19:07 48.46062 7.35239 34153 ft 441 kts 291°
2026-04-24 19:07 48.48083 7.28205 34157 ft 441 kts 291°
2026-04-24 19:08 48.50907 7.18319 34165 ft 441 kts 290°
2026-04-24 19:08 48.53328 7.09819 34172 ft 441 kts 290°
2026-04-24 19:09 48.55759 7.01258 34171 ft 441 kts 290°
2026-04-24 19:09 48.58175 6.92738 34174 ft 441 kts 290°
2026-04-24 19:10 48.60579 6.84216 34171 ft 441 kts 290°
2026-04-24 19:10 48.62966 6.75719 34169 ft 442 kts 290°
2026-04-24 19:11 48.65370 6.67124 34170 ft 442 kts 290°
2026-04-24 19:11 48.67738 6.58638 34174 ft 442 kts 290°
2026-04-24 19:12 48.70130 6.50030 34175 ft 443 kts 289°
2026-04-24 19:12 48.72512 6.41421 34175 ft 443 kts 289°
2026-04-24 19:13 48.74486 6.34277 34179 ft 443 kts 289°
2026-04-24 19:13 48.77274 6.24161 34184 ft 444 kts 289°
2026-04-24 19:14 48.79643 6.15518 34183 ft 444 kts 289°
2026-04-24 19:14 48.82004 6.06859 34180 ft 444 kts 289°
2026-04-24 19:15 48.84355 5.98192 34183 ft 444 kts 289°
2026-04-24 19:15 48.86709 5.89511 34181 ft 444 kts 289°
2026-04-24 19:16 48.90224 5.76494 34185 ft 444 kts 289°
2026-04-24 19:16 48.92553 5.67790 34184 ft 444 kts 289°
2026-04-24 19:17 48.94875 5.59071 34181 ft 445 kts 289°
2026-04-24 19:17 48.97203 5.50360 34191 ft 445 kts 289°
2026-04-24 19:18 48.99141 5.43079 34188 ft 445 kts 289°
2026-04-24 19:18 49.01480 5.34278 34183 ft 445 kts 289°
2026-04-24 19:19 49.03798 5.25528 34178 ft 446 kts 289°
2026-04-24 19:19 49.06101 5.16722 33796 ft 446 kts 289°
2026-04-24 19:20 49.07249 5.12312 33523 ft 446 kts 289°
2026-04-24 19:20 49.08394 5.07928 33256 ft 445 kts 289°
2026-04-24 19:20 49.09538 5.03549 32991 ft 444 kts 289°
2026-04-24 19:20 49.10675 4.99184 32728 ft 442 kts 289°
2026-04-24 19:21 49.11810 4.94819 32467 ft 440 kts 289°
2026-04-24 19:21 49.12939 4.90477 32208 ft 439 kts 289°
2026-04-24 19:21 49.14060 4.86163 31957 ft 437 kts 289°
2026-04-24 19:21 49.15180 4.81847 31695 ft 435 kts 289°
2026-04-24 19:22 49.15917 4.78993 31531 ft 434 kts 289°
2026-04-24 19:22 49.17387 4.73261 31204 ft 432 kts 289°
2026-04-24 19:22 49.18464 4.69051 30965 ft 431 kts 289°
2026-04-24 19:22 49.19556 4.64785 30713 ft 429 kts 289°
2026-04-24 19:23 49.20657 4.60480 30466 ft 427 kts 289°
2026-04-24 19:23 49.21721 4.56313 30229 ft 426 kts 289°
2026-04-24 19:23 49.22803 4.52067 29944 ft 424 kts 289°
2026-04-24 19:23 49.23874 4.47854 29656 ft 422 kts 289°
2026-04-24 19:24 49.24930 4.43695 29379 ft 420 kts 289°
2026-04-24 19:24 49.25985 4.39526 29101 ft 419 kts 289°
2026-04-24 19:24 49.27039 4.35360 28830 ft 417 kts 289°
2026-04-24 19:24 49.28081 4.31247 28559 ft 415 kts 289°
2026-04-24 19:25 49.29127 4.27117 28289 ft 413 kts 289°
2026-04-24 19:25 49.30158 4.23020 28023 ft 412 kts 289°
2026-04-24 19:25 49.31185 4.18924 27761 ft 410 kts 289°
2026-04-24 19:25 49.32201 4.14865 27501 ft 408 kts 289°
2026-04-24 19:26 49.33211 4.10820 27243 ft 407 kts 289°
2026-04-24 19:26 49.34223 4.06770 26987 ft 405 kts 289°
2026-04-24 19:26 49.35231 4.02724 26737 ft 403 kts 289°
2026-04-24 19:26 49.36224 3.98722 26490 ft 402 kts 288°
2026-04-24 19:27 49.37001 3.94733 26243 ft 399 kts 282°
2026-04-24 19:27 49.37682 3.90554 25986 ft 398 kts 282°
2026-04-24 19:27 49.38357 3.86401 25752 ft 396 kts 282°
2026-04-24 19:27 49.39020 3.82310 25518 ft 395 kts 282°
2026-04-24 19:28 49.39684 3.78217 25275 ft 393 kts 282°
2026-04-24 19:28 49.40341 3.74143 25033 ft 392 kts 282°
2026-04-24 19:28 49.40995 3.70080 24799 ft 391 kts 282°
2026-04-24 19:28 49.41643 3.66043 24562 ft 389 kts 282°
2026-04-24 19:29 49.42925 3.57997 24102 ft 387 kts 282°
2026-04-24 19:29 49.43562 3.53981 23870 ft 386 kts 282°
2026-04-24 19:29 49.44194 3.49985 23611 ft 385 kts 282°
2026-04-24 19:30 49.44825 3.45985 23347 ft 383 kts 282°
2026-04-24 19:30 49.45451 3.42022 23084 ft 381 kts 282°
2026-04-24 19:30 49.46072 3.38081 22814 ft 380 kts 282°
2026-04-24 19:30 49.46677 3.34138 22533 ft 377 kts 279°
2026-04-24 19:31 49.46868 3.30176 21847 ft 367 kts 269°
2026-04-24 19:31 49.46824 3.26287 20895 ft 362 kts 267°
2026-04-24 19:31 49.46749 3.22427 19981 ft 358 kts 268°
2026-04-24 19:31 49.46659 3.18590 19082 ft 353 kts 268°
2026-04-24 19:32 49.46556 3.14890 18200 ft 349 kts 267°
2026-04-24 19:32 49.46441 3.11178 17225 ft 345 kts 267°
2026-04-24 19:32 49.46317 3.07473 16286 ft 341 kts 267°
2026-04-24 19:32 49.46185 3.03831 15386 ft 337 kts 267°
2026-04-24 19:33 49.46049 3.00298 14404 ft 337 kts 267°
2026-04-24 19:33 49.45899 2.96649 13334 ft 338 kts 267°
2026-04-24 19:33 49.45751 2.93072 12362 ft 334 kts 267°
2026-04-24 19:33 49.45614 2.89537 11448 ft 330 kts 267°
2026-04-24 19:34 49.45488 2.86068 10601 ft 325 kts 267°
2026-04-24 19:34 49.45372 2.82732 10339 ft 302 kts 267°
2026-04-24 19:34 49.45261 2.79530 9767 ft 292 kts 267°
2026-04-24 19:34 49.45159 2.76492 9127 ft 285 kts 267°
2026-04-24 19:35 49.45063 2.73576 9004 ft 268 kts 267°
2026-04-24 19:35 49.44971 2.70776 8854 ft 259 kts 267°
2026-04-24 19:35 49.44881 2.68022 8591 ft 256 kts 267°
2026-04-24 19:35 49.44792 2.65304 8284 ft 255 kts 267°
2026-04-24 19:36 49.44703 2.62594 7967 ft 254 kts 267°
2026-04-24 19:36 49.44616 2.59880 7656 ft 253 kts 267°
2026-04-24 19:36 49.44529 2.57187 7345 ft 252 kts 267°
2026-04-24 19:36 49.44443 2.54522 7188 ft 250 kts 267°
2026-04-24 19:37 49.44358 2.51846 7189 ft 252 kts 268°
2026-04-24 19:37 49.44578 2.49198 7186 ft 252 kts 288°
2026-04-24 19:37 49.45171 2.46648 7192 ft 253 kts 291°
2026-04-24 19:37 49.45812 2.44136 7196 ft 253 kts 292°
2026-04-24 19:38 49.46460 2.41626 7200 ft 253 kts 292°
2026-04-24 19:38 49.47113 2.39111 7190 ft 252 kts 292°
2026-04-24 19:38 49.47762 2.36614 7192 ft 252 kts 292°
2026-04-24 19:38 49.48413 2.34109 7195 ft 252 kts 292°
2026-04-24 19:39 49.49064 2.31602 7191 ft 252 kts 292°
2026-04-24 19:39 49.49714 2.29096 7194 ft 252 kts 292°
2026-04-24 19:39 49.50365 2.26590 7187 ft 252 kts 292°
2026-04-24 19:39 49.51014 2.24092 7186 ft 252 kts 292°
2026-04-24 19:40 49.51663 2.21588 7189 ft 252 kts 292°
2026-04-24 19:40 49.52314 2.19083 7200 ft 252 kts 292°
2026-04-24 19:40 49.52963 2.16585 7196 ft 252 kts 292°
2026-04-24 19:40 49.53614 2.14079 7185 ft 252 kts 292°
2026-04-24 19:41 49.54263 2.11574 7196 ft 252 kts 292°
2026-04-24 19:41 49.54912 2.09070 7185 ft 252 kts 292°
2026-04-24 19:41 49.55559 2.06566 7192 ft 252 kts 292°
2026-04-24 19:41 49.56207 2.04057 7185 ft 252 kts 292°
2026-04-24 19:42 49.56859 2.01536 6948 ft 252 kts 292°
2026-04-24 19:42 49.57504 1.99045 6714 ft 250 kts 292°
2026-04-24 19:42 49.58146 1.96563 6462 ft 249 kts 292°
2026-04-24 19:42 49.58788 1.94089 6203 ft 249 kts 292°
2026-04-24 19:43 49.59430 1.91615 5952 ft 248 kts 292°
2026-04-24 19:43 49.60075 1.89127 5588 ft 250 kts 292°
2026-04-24 19:43 49.60723 1.86626 5240 ft 250 kts 292°
2026-04-24 19:43 49.61360 1.84162 5103 ft 247 kts 292°
2026-04-24 19:44 49.61996 1.81708 4986 ft 247 kts 292°
2026-04-24 19:44 49.62630 1.79260 4857 ft 246 kts 292°
2026-04-24 19:44 49.63265 1.76805 4725 ft 246 kts 292°
2026-04-24 19:44 49.63899 1.74348 4612 ft 246 kts 292°
2026-04-24 19:45 49.64530 1.71899 4477 ft 246 kts 292°
2026-04-24 19:45 49.65158 1.69459 4357 ft 245 kts 292°
2026-04-24 19:45 49.65784 1.67014 4227 ft 245 kts 292°
2026-04-24 19:45 49.66411 1.64570 4112 ft 245 kts 292°
2026-04-24 19:46 49.67035 1.62136 4028 ft 243 kts 292°
2026-04-24 19:46 49.67649 1.59725 4023 ft 245 kts 289°
2026-04-24 19:46 49.67883 1.57143 4026 ft 244 kts 263°
2026-04-24 19:46 49.67348 1.54657 4024 ft 241 kts 235°
2026-04-24 19:47 49.66182 1.52856 4022 ft 238 kts 208°
2026-04-24 19:47 49.64662 1.52046 4028 ft 235 kts 182°
2026-04-24 19:47 49.63042 1.52330 4019 ft 231 kts 157°
2026-04-24 19:47 49.61698 1.53631 4023 ft 230 kts 132°
2026-04-24 19:48 49.60852 1.55653 4026 ft 229 kts 108°
2026-04-24 19:48 49.60621 1.58062 4029 ft 229 kts 90°
2026-04-24 19:48 49.60617 1.62997 4026 ft 230 kts 90°
2026-04-24 19:49 49.60591 1.67870 3507 ft 226 kts 91°
2026-04-24 19:49 49.60558 1.72665 2935 ft 220 kts 90°
2026-04-24 19:50 49.59282 1.79178 2086 ft 214 kts 120°
2026-04-24 19:50 49.58488 1.81028 2016 ft 202 kts 120°
2026-04-24 19:51 49.56951 1.84616 2016 ft 200 kts 120°
2026-04-24 19:51 49.56216 1.86321 2028 ft 178 kts 119°
2026-04-24 19:52 49.55151 1.88800 2016 ft 163 kts 118°
2026-04-24 19:52 49.54530 1.90246 2011 ft 163 kts 118°
2026-04-24 19:52 49.53901 1.91708 2011 ft 164 kts 119°
2026-04-24 19:52 49.53264 1.93187 2015 ft 164 kts 118°
2026-04-24 19:53 49.52637 1.94642 2010 ft 163 kts 118°
2026-04-24 19:53 49.52011 1.96095 2013 ft 163 kts 118°
2026-04-24 19:53 49.50770 1.98968 2012 ft 157 kts 118°
2026-04-24 19:54 49.50187 2.00312 1887 ft 145 kts 118°
2026-04-24 19:54 49.49644 2.01571 1732 ft 141 kts 118°
2026-04-24 19:54 49.49106 2.02817 1555 ft 139 kts 118°
2026-04-24 19:54 49.48570 2.04059 1362 ft 140 kts 120°
2026-04-24 19:55 49.48208 2.04903 1214 ft 142 kts 120°
2026-04-24 19:55 49.47476 2.06603 940 ft 144 kts 121°
2026-04-24 19:55 49.46897 2.07866 801 ft 145 kts 121°
2026-04-24 19:55 49.46354 2.09164 631 ft 145 kts 120°
2026-04-24 19:56 49.45791 2.10468 398 ft 147 kts 119°
2026-04-24 19:56 49.45287 2.11647 336 ft 102 kts 123°
2026-04-24 19:56 49.45072 2.12116 333 ft 7 kts 135°
2026-04-24 19:56 49.45077 2.12133 331 ft 1 kts 356°
2026-04-24 19:57 49.45083 2.12112 331 ft 5 kts 297°
2026-04-24 19:57 49.45107 2.12054 332 ft 7 kts 302°
2026-04-24 19:57 49.45138 2.11980 331 ft 12 kts 304°
2026-04-24 19:57 49.45204 2.11830 332 ft 23 kts 304°
2026-04-24 19:58 49.45299 2.11614 333 ft 21 kts 303°
2026-04-24 19:58 49.45382 2.11424 336 ft 21 kts 305°
2026-04-24 19:58 49.45420 2.11341 335 ft 6 kts 304°
2026-04-24 19:58 49.45458 2.11256 347 ft 14 kts 303°
2026-04-24 19:59 49.45552 2.11040 355 ft 20 kts 303°
2026-04-24 19:59 49.45617 2.10898 356 ft 15 kts 313°
2026-04-24 19:59 49.45701 2.10918 357 ft 9 kts 27°
2026-04-24 19:59 49.45761 2.10966 358 ft 11 kts 27°
2026-04-24 20:00 49.45779 2.11059 354 ft 12 kts 120°
2026-04-24 20:00 49.45745 2.11140 353 ft 10 kts 123°
2026-04-24 20:00 49.45709 2.11227 357 ft 9 kts 114°
2026-04-24 20:00 49.45730 2.11275 354 ft 2 kts
2026-04-24 20:01 49.45748 2.11270 351 ft 3 kts 347°
2026-04-24 20:01 49.45765 2.11263 352 ft 1 kts 346°
2026-04-24 20:01 49.45767 2.11262 351 ft 0 kts 346°